[Iaude] MPEC S55: 2016 SW1

mpec at si.edu mpec at si.edu
Thu Sep 29 16:06:12 EDT 2016


M.P.E.C. 2016-S55                                Issued 2016 Sept. 26, 23:44 UT
 
     The Minor Planet Electronic Circulars contain information on unusual
         minor planets and routine data on comets.  They are published
    on behalf of Division F of the International Astronomical Union by the
          Minor Planet Center, Smithsonian Astrophysical Observatory,
                          Cambridge, MA 02138, U.S.A.

             Prepared using the Tamkin Foundation Computer Network

                              MPC at CFA.HARVARD.EDU
            URL http://www.minorplanetcenter.net/    ISSN 1523-6714


                                   2016 SW1
 
Observations:
     K16S01W* C2016 09 25.09438 22 56 11.07 +23 11 37.2          19.2 VqES055G96
     K16S01W  C2016 09 25.09895 22 56 17.83 +23 11 43.9          19.6 VqES055G96
     K16S01W  C2016 09 25.10323 22 56 24.16 +23 11 49.8          19.7 VqES055G96
     K16S01W  C2016 09 25.10756 22 56 30.52 +23 11 56.2          19.4 VqES055G96
     K16S01W  C2016 09 25.16412 22 57 52.68 +23 13 01.9          19.5 VqES055G96
     K16S01W  C2016 09 25.16631 22 57 55.80 +23 13 04.2          19.7 VqES055G96
     K16S01W  C2016 09 25.16863 22 57 59.14 +23 13 06.0          19.6 VqES055G96
     K16S01W  C2016 09 26.17982 23 39 35.69 +22 49 05.6          18.9 VqES055G96
     K16S01W  C2016 09 26.17995 23 39 36.11 +22 49 05.8          18.6 VqES055G96
     K16S01W  C2016 09 26.18022 23 39 36.89 +22 49 04.9          18.8 VqES055G96
     K16S01W  C2016 09 26.18196 23 39 42.27 +22 49 00.8          18.6 VqES055G96
     K16S01W  C2016 09 26.18213 23 39 42.82 +22 49 00.7          18.8 VqES055G96
     K16S01W  C2016 09 26.18240 23 39 43.60 +22 48 59.9          18.9 VqES055G96
     K16S01W  C2016 09 26.18423 23 39 49.20 +22 48 55.9          18.3 VqES055G96
     K16S01W  C2016 09 26.18435 23 39 49.65 +22 48 55.6          18.9 VqES055G96
     K16S01W KC2016 09 26.81582 00 27 43.62 +21 22 56.9          18.0 RqES055104
     K16S01W KC2016 09 26.81784 00 27 54.84 +21 22 34.8          18.0 RqES055104
     K16S01W KC2016 09 26.82032 00 28 08.61 +21 22 07.6          18.2 RqES055104
     K16S01W KC2016 09 26.82381 00 28 28.06 +21 21 28.7          18.0 RqES055104
     K16S01W KC2016 09 26.85024 00 30 56.09 +21 16 28.4          17.7 RqES055160
     K16S01W KC2016 09 26.85176 00 31 04.65 +21 16 10.2          18.4 RqES055160
     K16S01W KC2016 09 26.85328 00 31 13.21 +21 15 50.9          18.8 RqES055160
     K16S01W KC2016 09 26.91225 00 36 55.10 +21 02 18.9          18.0 VqES055C77
     K16S01W KC2016 09 26.91414 00 37 06.15 +21 01 51.2          18.2 VqES055C77
     K16S01W KC2016 09 26.91717 00 37 23.91 +21 01 07.3          18.0 VqES055C77
 
Observer details:
104 San Marcello Pistoiese.  Observers P. Bacci, M. Maestripieri.  Measurers
    P. Bacci, L. Tesi, G. Fagioli.  0.60-m f/4 reflector + CCD.
160 Castelmartini.  Observers M. Jaeger, E. Prosperi, S. Prosperi, W. Vollmann.
    Measurer E. Prosperi.  0.35-m f/10 Schmidt-Cassegrain + CCD.
C77 Bernezzo Observatory.  Observer A. Mantero.  0.25-m f/4 reflector + CCD.
G96 Mt. Lemmon Survey.  Observers D. C. Fuls, E. J. Christensen.  Measurers
    E. J. Christensen, D. C. Fuls, A. R. Gibbs, A. D. Grauer, J. A. Johnson,
    R. A. Kowalski, S. M. Larson, G. J. Leonard, R. G. Matheny, R. L. Seaman,
    F. C. Shelly.  1.5-m reflector + 10K CCD.
 
Orbital elements:
2016 SW1                                                 Earth MOID = 0.0017 AU
Epoch 2016 July 31.0 TT = JDT 2457600.5                 MPC
M 293.73120              (2000.0)            P               Q
n   0.70265061     Peri.  220.08208     +0.70694825     -0.70721806
a   1.2530732      Node   184.95099     +0.67073864     +0.67405822
e   0.2334692      Incl.    5.43313     +0.22435204     +0.21327946
P   1.40           H   28.5           G   0.15           U   6
Residuals in seconds of arc
160925 G96  0.1-  0.1+    160926 G96  0.3-  0.1-    160926 104  0.6+  0.1-
160925 G96  0.1-  0.1+    160926 G96  0.0   0.2-    160926 160  0.1-  0.3+
160925 G96  0.1+  0.2-    160926 G96  0.4+  0.0     160926 160  0.0   0.5+
160925 G96  0.0   0.0     160926 G96  0.3-  0.1-    160926 160  0.0   0.4-
160925 G96  0.3+  0.1-    160926 G96  0.7-  0.1+    160926 C77  0.2-  0.2+
160925 G96  0.1-  0.2+    160926 G96  0.4+  0.0     160926 C77  0.1-  0.2-
160925 G96  0.1-  0.0     160926 104  0.2-  0.1-    160926 C77  0.2+  0.0
160926 G96  0.1+  0.2-    160926 104  0.0   0.1-
160926 G96  0.4+  0.2+    160926 104  0.0   0.0

Ephemeris:
2016 SW1                 a,e,i = 1.25, 0.23, 5                   q = 0.9605
Date    TT    R. A. (2000) Decl.     Delta      r     Elong.  Phase     V
2016 08 27    21 45 27.2 +19 27 27   0.1044  1.1012   149.0    28.2    25.1
...
2016 09 11    21 45 31.9 +21 32 25   0.05384 1.0515   145.5    32.8    23.6
...
2016 09 19    21 57 14.4 +22 23 20   0.02858 1.0278   144.3    34.8    22.3
...
2016 09 25    22 52 52.9 +23 16 00   0.01022 1.0118   151.1    28.6    19.8
2016 09 26    23 29 08.7 +23 02 51   0.0073611.0093   155.9    23.9    19.0
2016 09 27    00 45 41.4 +20 50 41   0.0048271.0068   159.4    20.5    17.9
...
2016 10 03    08 44 04.0 -20 00 01   0.01565 0.9926    58.8   120.4    24.3
...
2016 10 11    09 19 31.1 -21 23 29   0.04011 0.9766    56.4   121.6    26.4
...
2016 10 26    09 41 19.7 -21 32 04   0.08602 0.9576    62.6   112.8    27.4

A. U. Tomatic                (C) Copyright 2016 MPC           M.P.E.C. 2016-S55




More information about the Iaude mailing list